Theta_e
320 321 325 327 329 329 333 333 332 339 334 330 336 331 328 331 326 320 319 317 319 320 320 323 325 323 323 325 329 330 329 331 332 332 334 328 318 321 324 322 323 322 321 321 322 325 327 330 332 332 333 333 332 332 334 334 334 335 335 335 335 335 335 335 335 335 335 335 335 335 336 336 336 335 335 334 333 333 333 333 334 335 336 337 337 338 338 338 338 337 336 335 334 334 334 334 335
321 325 327 327 329 328 337 340 334 338 335 331 332 331 333 329 320 321 322 320 321 320 321 323 324 322 323 326 325 325 325 324 326 328 324 318 318 322 322 322 321 319 319 318 318 320 323 327 329 331 330 329 328 329 331 331 332 332 332 332 332 333 333 333 333 333 333 333 334 334 334 334 334 334 333 332 332 331 330 330 330 332 333 334 335 335 335 334 334 334 334 332 330 331 332 331 331
322 328 329 327 329 331 341 341 337 333 327 327 329 333 329 320 322 328 326 322 322 321 321 321 322 321 321 324 321 323 325 320 319 321 317 315 318 321 322 322 320 319 319 318 318 317 319 323 326 327 326 327 327 327 325 326 329 326 326 327 329 331 330 331 331 330 331 331 331 331 331 331 330 330 329 328 327 326 326 325 326 327 328 330 330 331 330 328 329 329 328 325 322 322 323 323 322
325 329 328 330 336 340 345 339 341 335 324 328 329 333 329 323 331 331 326 323 320 320 320 319 319 318 319 324 320 321 327 323 318 318 318 315 317 321 321 321 321 320 320 319 318 315 318 322 324 323 324 327 326 324 320 323 325 318 318 322 325 326 326 327 328 327 327 327 326 325 325 325 325 324 323 322 321 321 321 321 321 322 323 324 324 324 323 321 320 319 317 313 311 310 310 310 310
325 329 325 330 339 342 341 333 338 333 327 335 330 334 336 330 332 325 323 321 319 320 320 320 320 317 317 321 321 321 327 325 318 315 318 316 317 321 320 321 322 322 322 321 320 316 316 322 323 320 321 323 321 318 316 318 318 315 319 323 324 323 324 325 324 324 321 319 318 318 317 317 318 318 318 317 316 315 314 314 314 314 315 316 317 317 315 313 311 308 306 303 302 302 302 302 301
325 326 325 326 329 333 336 332 334 331 331 336 331 336 336 328 327 323 320 319 319 320 319 320 319 320 319 319 319 320 322 323 318 314 316 317 317 320 320 320 321 323 323 322 321 316 316 320 321 319 318 314 312 312 311 312 312 314 318 320 320 320 320 319 318 316 314 313 311 310 309 309 309 310 310 309 307 305 304 304 304 304 305 306 308 310 309 307 305 303 300 299 299 299 299 299 299
324 325 331 328 326 330 336 336 336 336 333 331 331 332 328 326 323 321 320 319 319 318 317 319 319 321 321 318 318 317 316 318 317 316 317 318 317 319 320 319 321 323 322 323 321 316 316 319 319 321 319 312 309 308 308 308 309 310 311 311 311 311 311 310 309 308 307 306 305 304 303 302 302 302 302 301 300 299 299 299 299 299 299 299 300 302 302 301 300 299 298 297 297 297 298 297 298
324 326 332 334 332 329 330 332 332 333 330 326 328 326 325 326 321 321 322 320 319 318 318 319 319 320 319 317 321 318 314 316 316 316 317 317 317 318 319 319 321 321 322 323 320 316 316 318 322 324 321 314 308 306 306 305 305 305 305 304 304 304 304 304 303 302 302 301 301 300 300 299 299 299 298 298 298 298 298 297 297 297 297 297 297 298 298 298 298 297 297 297 297 297 297 297 297
323 323 326 332 328 325 330 330 326 327 328 324 321 323 327 324 318 321 323 320 319 320 319 320 320 318 318 318 322 317 314 317 316 316 316 316 317 317 319 319 320 320 321 321 319 317 316 320 324 324 317 310 305 304 304 303 303 302 302 302 301 301 301 301 300 300 300 299 299 298 298 298 298 297 297 297 297 297 297 297 297 297 297 297 297 297 297 297 297 297 297 297 297 296 296 297 297
324 323 325 330 326 325 329 327 327 329 329 327 321 322 327 322 318 320 322 321 320 320 319 319 317 316 318 321 324 319 315 317 315 315 315 315 315 316 318 318 318 317 318 318 317 316 315 319 321 319 310 304 303 303 303 302 302 301 301 301 300 300 299 299 299 299 298 298 298 298 298 297 297 297 297 297 297 297 296 297 296 296 297 297 297 297 297 297 297 296 296 296 297 297 298 297 297
330 330 329 328 327 327 327 328 331 331 328 326 323 321 322 320 318 320 320 320 320 320 318 316 317 319 318 321 325 318 313 315 314 315 314 314 314 314 316 317 317 315 315 316 315 315 315 317 316 311 305 303 303 303 302 302 301 300 300 299 299 299 299 298 298 298 298 298 298 298 297 297 297 297 297 297 297 296 296 296 296 296 297 297 297 297 297 297 297 296 295 296 297 299 299 298 298
329 335 335 327 330 330 329 332 331 329 329 326 323 321 320 318 318 321 320 319 320 320 319 317 318 320 318 321 322 313 310 313 314 314 314 313 313 313 314 315 316 315 315 316 314 314 314 314 312 307 304 303 303 302 302 301 300 299 299 298 298 298 298 298 297 298 298 298 298 298 297 297 297 297 297 297 297 296 296 296 296 296 296 297 297 296 295 296 295 295 295 295 296 297 297 296 297
328 335 335 328 334 332 327 332 332 329 331 331 325 319 318 317 319 323 323 320 320 321 320 318 318 316 319 323 318 310 309 312 314 313 313 311 312 312 313 314 315 316 316 316 313 313 314 313 309 305 303 303 303 302 300 300 299 298 298 298 298 297 297 297 297 297 297 297 297 297 297 298 297 297 297 297 297 296 296 296 296 296 295 296 296 295 295 295 295 295 295 295 295 295 295 295 295
327 333 331 327 332 332 326 328 331 325 326 333 326 318 318 318 321 324 322 320 320 321 319 316 316 316 319 320 321 319 312 311 313 311 311 310 310 311 312 314 314 315 315 315 313 312 313 311 307 303 303 303 302 301 300 299 298 298 298 297 297 297 297 297 297 297 297 297 297 297 297 297 297 297 297 297 297 297 297 296 296 296 296 296 296 295 295 296 295 296 295 295 295 295 295 295 295
324 336 330 326 329 327 325 324 325 320 324 332 323 318 319 318 320 321 321 320 320 318 315 313 315 317 320 320 327 328 314 311 311 309 309 308 308 310 311 313 313 313 314 314 312 311 311 308 305 303 303 303 301 300 299 298 298 297 297 297 297 297 297 297 296 297 297 297 297 297 297 297 297 297 297 297 297 297 297 296 296 296 296 296 296 296 296 296 296 296 296 295 295 295 295 295 295
330 338 327 325 328 324 324 326 325 321 328 333 321 317 319 319 318 318 318 317 319 316 315 317 314 315 320 320 321 318 312 312 310 307 307 305 306 309 311 312 312 312 312 312 310 309 308 305 303 303 302 302 301 299 298 298 298 297 297 297 296 296 296 296 297 297 297 297 297 297 297 297 296 296 297 297 297 297 296 296 296 296 296 296 296 296 296 295 295 295 295 295 295 295 295 295 295
334 332 324 326 329 325 327 329 324 321 329 333 323 318 319 321 318 316 314 314 319 317 318 319 314 315 318 317 314 311 312 311 308 305 304 304 305 307 309 310 310 311 310 310 309 308 307 304 302 302 302 301 300 299 298 298 297 297 297 297 296 296 296 296 297 296 296 296 296 296 296 296 296 296 296 296 296 296 296 296 295 295 295 295 294 294 294 294 293 294 294 294 294 294 294 294 294
330 326 321 323 327 328 332 334 325 320 324 325 322 320 319 321 321 316 314 316 318 317 318 319 316 315 312 310 311 311 311 309 306 304 303 303 304 305 306 307 309 309 309 309 308 307 305 303 302 301 301 300 299 298 297 297 297 297 297 296 296 296 296 296 296 296 296 296 296 296 296 296 296 296 296 295 295 295 295 295 294 294 294 294 293 293 293 293 293 293 293 293 294 294 294 294 294
330 330 323 325 330 329 330 330 323 318 318 321 323 321 318 319 320 316 316 320 319 317 318 318 317 317 311 307 307 308 308 306 304 303 302 302 302 303 303 304 305 306 307 307 306 305 303 302 302 300 300 299 298 297 297 297 297 297 297 296 296 296 296 296 296 296 296 296 296 296 296 296 295 295 295 295 295 294 294 294 293 293 293 293 293 293 293 293 293 293 293 293 293 294 294 294 294
331 329 324 332 332 327 327 325 321 320 318 320 321 318 317 319 317 315 317 321 320 319 318 318 318 319 318 309 304 306 305 304 303 302 302 302 302 302 303 303 303 304 305 305 304 304 302 301 301 300 299 298 297 297 297 297 297 297 296 296 296 296 296 296 296 296 296 296 296 296 296 295 295 295 295 294 294 294 293 293 293 293 293 293 293 293 293 293 293 293 293 293 293 294 294 294 294
327 323 325 334 327 322 325 323 321 321 318 318 320 317 317 318 316 316 318 318 318 318 316 317 319 318 320 311 304 304 303 302 302 302 302 301 302 302 302 303 303 304 303 303 303 303 301 300 300 299 298 297 297 297 297 297 296 296 296 296 296 296 296 296 296 296 296 296 295 295 295 294 294 294 294 294 293 293 293 293 293 293 293 293 293 293 293 293 293 293 293 294 294 294 294 293 293
323 322 324 327 322 319 321 322 322 321 318 317 319 317 317 316 315 317 318 317 316 318 317 317 317 317 319 312 306 304 303 302 301 301 301 301 302 302 302 302 302 302 301 302 302 302 301 300 299 299 297 297 297 297 297 297 296 296 296 296 295 295 295 295 295 295 295 295 295 295 294 294 294 294 294 293 293 293 293 293 293 293 293 293 293 294 294 294 293 293 293 294 293 293 293 293 293
322 324 323 322 319 318 318 320 320 319 316 316 317 316 316 316 316 319 318 316 315 319 322 319 317 314 313 310 306 305 305 304 302 301 301 301 301 301 302 302 302 302 301 301 301 301 300 300 299 299 298 297 297 297 297 297 296 296 296 295 295 295 295 295 295 295 295 295 295 295 295 294 294 294 293 293 293 293 294 294 294 293 294 294 294 294 294 294 294 293 293 293 293 293 293 293 293
322 323 322 321 319 319 319 318 318 318 317 317 316 314 315 317 317 317 316 315 314 317 321 321 316 309 309 310 308 307 306 304 303 302 302 302 302 303 303 303 302 302 301 300 300 300 300 300 299 299 299 298 297 297 297 296 296 296 296 295 295 295 295 295 295 295 295 295 295 295 295 295 294 294 294 294 294 294 294 294 294 294 294 294 294 294 295 294 294 293 293 293 293 293 293 293 293
322 323 322 320 319 319 319 317 317 318 317 316 315 314 316 316 315 315 315 314 313 315 317 319 316 312 313 313 310 308 307 305 303 303 303 303 303 304 303 302 302 302 301 301 300 300 300 300 299 299 299 298 298 297 297 296 296 295 295 295 295 295 295 295 295 295 294 295 295 295 295 295 295 295 294 294 294 294 294 294 294 294 294 294 294 294 294 294 294 293 293 293 293 293 293 293 292
323 322 321 318 318 317 316 317 317 317 317 315 315 316 316 314 314 315 315 314 314 315 316 316 316 317 317 313 310 308 308 306 304 303 303 303 303 303 303 303 302 302 302 301 301 300 300 300 300 299 299 298 298 298 297 296 295 295 295 295 295 295 295 295 294 294 294 295 295 295 295 295 295 295 295 295 294 294 295 294 294 294 294 294 294 294 294 293 293 293 293 293 293 293 292 292 292
319 318 318 317 316 316 315 316 316 315 316 316 315 316 316 314 314 315 316 316 316 316 316 314 313 315 315 313 311 308 308 307 305 305 304 303 303 303 303 303 302 303 302 302 302 301 300 300 300 300 299 299 298 298 297 296 295 295 295 295 295 295 295 294 294 294 294 295 295 296 295 295 295 295 295 295 295 295 295 295 294 294 294 294 294 294 293 293 293 293 293 292 292 292 292 292 292
316 315 317 317 316 316 315 315 316 314 315 318 315 315 316 313 313 315 315 317 317 316 317 316 314 314 313 313 311 309 308 307 306 305 305 304 304 304 304 304 304 303 302 303 303 301 300 300 300 300 300 299 299 298 297 296 295 295 295 295 295 296 295 295 294 294 294 295 295 295 295 295 295 295 295 295 295 295 296 295 295 295 294 294 294 293 293 293 293 292 292 292 292 292 292 292 291
315 315 316 317 316 316 315 315 316 314 316 318 316 315 317 315 315 316 314 315 315 315 317 316 315 314 312 311 311 310 308 307 306 305 305 306 306 305 305 305 305 304 304 304 302 301 301 301 300 300 300 300 299 299 298 296 295 295 295 296 296 296 296 295 295 294 294 295 295 295 295 295 295 295 295 295 295 296 296 296 295 295 294 294 294 293 293 292 292 292 292 292 292 291 291 291 291
315 315 315 316 316 317 315 315 316 314 315 317 316 316 318 318 316 315 314 314 313 315 315 314 314 313 312 311 311 311 309 307 307 306 306 307 307 307 306 307 306 305 305 303 302 302 302 301 300 300 300 300 299 299 298 296 295 295 296 296 296 296 296 295 295 295 294 294 295 295 295 295 294 294 295 295 295 296 296 296 295 295 294 294 294 293 293 292 292 292 292 292 292 291 291 291 291
316 314 316 317 316 318 316 315 317 315 315 316 315 316 317 317 316 316 315 314 313 315 316 314 313 312 311 311 311 311 310 308 307 307 307 307 307 307 307 307 306 306 305 303 303 303 302 301 301 300 300 300 299 299 298 296 295 296 296 297 297 296 296 295 295 295 294 294 295 295 294 294 294 294 294 295 295 296 296 296 295 295 294 294 294 293 293 292 292 292 292 292 291 291 291 291 290
321 315 318 321 318 317 315 315 316 315 314 313 315 318 316 316 316 317 315 315 315 315 317 316 314 312 311 311 311 311 310 308 306 307 308 307 307 307 307 307 307 306 306 305 304 303 302 302 301 301 300 300 299 299 298 296 296 296 297 297 297 297 296 296 296 295 294 295 294 294 294 294 294 294 294 295 295 296 296 296 295 295 294 294 293 293 293 292 292 292 292 292 291 291 291 290 290
326 317 317 321 319 316 316 317 317 316 315 312 314 317 318 316 316 318 317 315 314 314 315 314 313 313 312 311 310 311 311 310 308 307 307 308 308 307 308 308 308 307 307 306 304 303 302 302 301 301 301 300 300 299 298 297 297 297 297 297 297 297 297 296 296 295 295 295 294 294 294 294 294 294 294 294 295 296 296 296 295 294 294 294 293 293 293 292 292 292 291 291 291 291 290 290 290
322 317 317 320 318 315 315 319 319 316 315 315 314 314 316 316 317 319 319 316 314 314 315 314 312 312 312 312 310 310 311 311 311 309 307 308 308 308 308 308 308 307 307 306 305 304 303 302 302 301 301 300 300 299 299 298 297 298 298 298 298 298 297 297 296 295 295 295 294 294 294 294 294 294 294 294 295 295 295 295 294 294 293 293 293 292 292 292 291 291 291 291 290 290 290 290 290
318 318 319 319 317 315 315 316 316 315 314 315 316 313 313 314 314 315 315 314 314 314 315 314 313 312 312 312 311 311 310 311 311 310 308 308 308 308 308 308 308 307 307 306 305 304 303 302 301 301 300 300 300 299 299 298 298 298 298 298 298 298 297 296 296 295 294 294 294 294 294 294 294 293 294 294 294 294 294 294 294 293 293 292 292 292 292 291 291 291 290 290 290 289 289 289 289
316 317 316 316 316 314 314 314 314 315 314 315 315 314 313 313 312 313 313 313 313 312 313 312 312 312 312 312 312 312 311 311 310 309 309 309 308 309 309 308 308 307 307 306 304 303 302 301 301 300 300 300 299 299 298 298 297 298 297 297 297 297 296 296 295 295 294 294 294 293 294 294 294 293 293 294 294 294 294 294 293 292 292 292 292 292 291 291 291 290 290 290 289 289 289 288 288
314 314 314 315 314 312 312 312 313 314 314 315 316 314 313 313 313 313 313 313 313 313 312 312 312 311 311 312 312 312 312 312 310 309 309 309 309 309 309 308 307 306 306 305 303 302 302 301 300 300 300 299 299 299 298 298 297 297 297 297 297 296 296 295 295 295 294 294 294 293 293 293 293 293 293 293 293 293 293 293 293 292 292 291 291 291 291 290 290 290 289 289 289 289 288 288 288
314 314 314 314 314 313 312 312 313 314 313 314 315 315 313 313 314 313 313 313 313 313 312 313 312 311 312 311 312 313 312 313 312 311 308 308 309 308 308 308 307 306 305 305 303 302 302 301 301 300 299 299 299 299 298 298 298 297 297 297 296 296 296 295 295 294 294 294 294 293 293 293 293 293 293 293 293 293 292 292 292 292 291 291 291 290 290 290 290 290 289 289 289 288 287 287 287
314 315 314 314 314 313 313 314 315 313 313 317 317 315 313 313 313 312 313 313 313 313 313 313 313 313 312 312 312 312 312 313 313 313 310 306 306 307 307 306 306 307 306 305 303 302 301 300 300 300 299 299 299 299 299 298 298 297 297 297 296 296 295 295 295 294 294 294 294 293 293 292 292 292 292 292 292 292 292 292 292 291 291 291 291 291 290 290 290 290 289 288 288 287 287 287 287
314 315 315 315 314 314 314 316 319 315 314 319 319 314 313 313 313 312 312 312 312 313 313 313 313 313 313 313 313 312 312 313 312 313 312 308 305 305 305 306 305 306 305 303 302 301 300 300 300 299 299 299 299 299 299 298 297 297 296 296 296 295 295 295 294 294 294 294 293 293 293 292 292 292 292 292 292 291 291 291 291 291 291 291 291 291 290 290 290 289 289 288 288 287 286 286 286
315 315 314 315 314 314 314 315 319 316 314 318 317 314 314 314 314 313 313 313 312 312 312 313 312 313 313 313 314 314 314 314 313 314 313 313 311 306 304 305 305 304 304 303 302 301 300 300 299 299 299 299 299 298 298 297 297 296 296 295 295 295 294 294 293 293 293 293 293 293 293 292 292 292 291 291 291 291 291 291 291 291 291 290 290 291 290 289 289 288 288 288 288 287 286 286 285
314 316 315 314 315 315 315 316 316 316 318 318 317 317 318 318 318 314 314 314 314 314 313 313 313 313 313 313 313 314 314 314 314 314 313 316 313 305 303 305 304 304 304 304 303 302 301 300 299 299 299 298 298 298 297 297 296 296 295 295 294 294 293 293 293 293 292 293 293 293 292 292 292 291 291 291 291 290 290 290 290 290 290 290 290 290 289 288 288 288 288 287 287 287 287 286 285
315 321 322 316 315 316 317 317 316 320 323 319 317 320 319 319 321 318 316 317 316 316 316 314 314 313 313 314 314 314 314 313 314 314 313 315 313 308 305 304 303 304 304 304 302 301 301 300 299 299 298 298 298 297 297 297 296 296 296 295 295 294 293 293 293 293 293 293 292 292 292 292 292 291 291 291 290 290 290 290 290 290 290 290 290 289 289 288 288 287 287 287 287 287 286 286 285
318 323 326 322 320 319 318 318 318 321 322 318 318 321 320 318 319 320 320 320 319 318 318 315 313 313 313 313 313 313 313 313 314 315 314 314 314 310 306 303 303 304 304 303 302 301 301 300 299 299 298 298 297 297 297 297 296 296 296 295 295 295 294 294 293 293 293 292 292 292 292 292 292 291 291 290 290 290 289 289 289 289 289 289 289 289 288 288 287 287 286 286 286 286 286 286 285
320 320 322 323 323 321 319 320 321 321 320 319 320 321 321 319 317 319 318 318 320 318 318 317 315 314 313 313 313 313 313 313 314 315 314 315 312 307 304 304 304 304 304 304 302 301 300 300 299 298 298 298 297 297 297 297 297 296 296 295 295 295 294 294 293 293 293 292 292 292 292 292 291 291 291 290 290 289 289 289 289 289 289 289 289 288 288 287 287 287 286 286 286 286 286 286 285
320 321 322 324 327 326 323 322 321 322 321 320 321 320 320 319 318 320 317 316 319 316 315 316 315 315 314 314 315 314 314 315 316 315 315 314 309 304 304 305 304 303 303 303 302 301 300 299 299 298 298 298 297 297 297 297 296 296 296 295 295 294 294 293 293 293 292 292 292 291 291 291 291 291 291 290 290 289 289 288 288 288 288 288 288 288 287 287 286 286 286 286 285 285 285 285 285
318 321 326 328 330 329 329 328 322 321 321 321 324 322 319 319 319 319 317 317 319 315 315 315 314 316 315 314 314 313 314 315 316 318 318 314 306 303 304 304 303 303 302 302 301 301 300 299 299 298 298 298 297 297 297 296 296 296 296 295 295 294 294 293 293 292 292 291 291 291 291 291 291 291 290 290 290 289 288 288 288 288 288 288 288 287 287 287 286 286 285 285 285 285 285 285 284
318 324 327 326 328 327 328 328 322 320 321 321 324 322 318 318 317 317 317 319 318 315 316 316 316 317 315 314 314 313 314 313 315 320 321 315 309 305 304 302 301 301 301 301 301 300 300 299 299 298 298 298 297 297 297 296 296 296 296 295 295 295 294 293 293 292 292 291 291 291 290 290 290 290 290 290 290 289 288 288 287 287 287 287 287 287 287 286 286 286 285 285 285 285 284 284 284
318 324 323 321 325 323 322 325 323 321 321 319 318 318 317 317 317 317 318 319 320 317 316 315 317 319 318 317 316 314 314 313 315 322 322 317 313 310 306 302 300 300 300 300 300 300 300 299 299 298 298 298 297 297 297 296 296 296 296 295 295 295 294 294 293 293 292 292 291 290 290 290 289 289 289 290 290 289 288 288 287 287 287 287 287 287 286 286 286 285 285 285 285 285 284 284 284
317 320 321 321 322 321 322 326 324 320 320 318 315 317 318 317 320 320 316 315 318 317 316 315 316 319 322 322 318 316 315 314 317 322 322 318 312 309 306 302 299 299 300 300 299 299 299 299 298 298 298 298 297 297 296 296 296 296 296 295 295 294 294 294 293 293 292 292 291 291 290 290 290 290 290 290 290 289 289 288 288 287 287 287 287 286 286 286 285 285 285 285 285 284 284 284 283
316 319 322 321 323 327 326 327 323 320 324 321 314 318 321 318 320 323 318 315 317 317 316 315 314 315 318 318 317 316 315 316 320 324 322 317 311 308 305 301 300 300 299 299 299 299 299 299 298 298 298 298 297 297 296 296 296 296 296 295 295 295 294 294 293 293 293 292 292 291 291 290 290 290 290 290 290 289 289 288 287 287 286 286 286 286 286 285 285 285 285 284 284 284 284 283 283
316 322 324 318 322 327 322 322 322 319 323 322 316 320 323 317 315 319 319 318 318 318 316 314 313 313 314 315 316 316 314 317 326 328 322 315 310 307 304 301 301 300 299 299 299 299 299 299 298 298 298 298 297 297 297 297 296 296 295 295 295 295 294 294 293 293 293 292 292 291 291 291 290 290 290 290 290 289 289 288 287 287 286 286 286 286 285 285 285 284 284 284 284 284 283 283 283
316 318 320 317 319 320 317 321 323 317 317 320 320 321 320 316 317 316 315 315 315 316 315 314 315 314 314 314 315 315 313 316 325 327 321 314 311 307 303 301 301 300 300 300 299 300 299 299 299 298 298 298 297 297 297 297 296 295 295 295 295 295 294 294 294 293 292 292 291 291 291 291 290 290 290 290 290 289 289 288 287 287 286 286 286 285 285 285 285 284 284 284 284 283 283 283 282
318 320 318 316 318 318 319 322 324 319 318 320 320 320 316 317 320 316 315 316 316 316 316 316 316 315 314 313 313 314 314 316 320 321 317 314 312 309 304 301 301 301 300 300 300 300 300 299 299 298 298 297 298 298 297 296 296 296 295 295 295 295 295 294 294 293 292 292 291 291 291 291 290 290 290 290 289 289 288 288 287 287 286 285 285 285 285 284 284 284 284 284 283 283 283 282 282
317 320 317 316 319 321 320 321 321 320 319 320 320 320 318 317 318 316 316 318 317 317 316 314 313 313 313 313 313 313 314 319 323 320 315 312 312 310 304 301 301 301 301 301 300 300 299 299 299 299 298 298 297 297 296 296 296 296 295 295 295 295 294 294 294 293 292 292 291 291 291 290 290 290 290 290 289 289 288 288 287 286 286 285 285 284 284 284 284 284 283 283 282 282 282 282 282
313 314 314 315 317 320 321 321 322 321 320 321 321 321 320 320 320 318 317 318 317 316 317 317 315 314 313 313 313 314 313 318 323 322 317 313 312 308 303 301 301 301 301 301 300 300 300 299 299 299 299 298 297 297 297 296 296 296 296 295 295 295 294 294 293 293 292 292 291 291 290 290 290 290 290 289 289 289 288 287 287 286 286 285 284 284 284 284 284 283 283 283 282 282 282 282 282
314 314 317 315 314 318 320 319 320 319 319 320 321 321 320 321 323 319 317 319 318 317 319 321 318 315 313 312 313 314 314 317 320 321 318 315 314 309 302 301 302 301 301 301 301 300 299 299 299 299 299 298 297 297 297 296 296 296 296 295 295 294 294 294 293 292 292 292 291 291 290 290 289 289 289 289 289 289 288 287 287 286 286 285 284 284 284 284 283 283 282 282 282 282 282 282 281
316 315 316 315 314 317 318 317 318 318 318 318 319 320 319 318 320 319 319 320 318 318 320 320 319 316 315 316 315 314 315 314 315 316 316 314 313 310 303 301 301 301 301 301 300 300 299 299 300 299 299 298 298 298 297 297 296 296 296 295 295 294 293 293 293 292 292 292 291 291 290 290 289 289 289 289 289 288 288 287 286 286 285 285 284 284 284 283 283 282 282 281 281 281 281 281 280
Wind_Speed
1 2 1 0 2 3 2 4 2 3 2 1 3 1 5 5 3 3 2 3 1 2 3 1 2 2 2 4 6 6 4 5 5 5 3 4 13 18 19 18 19 20 20 20 19 18 17 17 14 13 12 12 12 12 11 10 10 9 10 9 10 9 9 8 8 8 7 7 7 7 7 7 7 7 6 4 3 4 4 4 4 4 4 4 4 4 6 7 6 5 2 1 3 4 3 2 3
1 1 1 0 3 2 1 3 2 4 4 3 4 3 5 3 1 5 7 6 4 3 2 1 5 6 5 6 6 4 1 1 2 4 2 9 15 16 20 19 19 19 19 19 19 18 18 18 15 13 12 13 13 12 12 11 10 10 10 9 10 9 9 8 8 8 7 7 7 7 7 7 7 6 6 3 3 4 4 4 4 4 3 4 4 2 1 1 1 1 2 2 4 4 3 3 2
0 1 2 0 2 3 1 3 1 1 2 3 5 4 3 2 5 7 7 7 6 4 4 2 3 4 5 4 2 3 2 2 2 3 2 12 14 18 24 20 20 19 18 19 18 19 19 19 15 14 13 13 13 13 14 12 11 11 11 10 10 10 10 10 8 8 8 8 7 7 7 6 6 5 5 4 5 5 4 4 4 4 3 4 4 2 1 2 1 1 2 4 5 4 3 3 3
1 1 3 2 2 3 4 3 1 4 1 3 3 6 3 4 7 6 7 7 5 3 2 3 1 1 4 1 2 2 2 3 5 7 5 16 18 23 28 21 21 19 19 19 18 18 18 19 16 15 14 13 13 13 14 12 12 12 11 11 10 10 11 11 10 9 8 8 7 7 7 6 6 5 5 5 5 5 5 4 4 4 4 4 3 2 2 3 3 3 3 4 4 4 4 3 3
2 1 3 3 2 1 3 1 2 4 4 4 2 6 6 6 7 6 5 5 5 3 3 4 1 2 1 2 3 1 5 2 5 11 8 18 23 27 28 23 23 20 20 19 17 18 18 19 16 16 15 14 14 13 13 12 12 12 12 11 11 11 10 11 10 9 8 8 8 8 8 8 7 7 6 5 5 5 5 5 4 5 5 5 5 4 4 4 4 3 3 4 4 4 4 4 4
2 1 2 3 2 1 2 1 2 3 5 5 3 6 7 6 7 6 3 4 4 2 4 4 3 3 0 1 1 2 5 1 5 11 10 19 26 29 28 24 24 22 20 19 17 18 19 19 17 17 15 16 15 15 15 13 13 12 12 12 11 11 11 11 10 9 9 8 8 8 8 8 8 7 7 6 6 6 6 6 6 5 5 5 6 5 5 5 5 4 4 4 4 4 4 4 4
3 2 2 3 1 2 3 3 4 4 5 6 5 6 8 7 6 5 4 2 1 2 1 3 3 5 1 1 1 3 3 3 6 6 12 23 30 32 28 25 25 23 21 20 18 19 20 19 17 16 15 16 15 15 15 13 13 12 12 12 12 11 11 11 10 10 9 8 8 8 8 8 8 7 6 6 6 6 6 6 6 6 6 5 5 5 5 5 6 6 6 6 5 5 5 5 5
4 1 1 4 1 2 3 3 4 4 4 5 5 6 7 7 7 6 6 4 2 2 1 3 3 3 3 1 1 4 3 7 6 5 15 27 33 34 30 28 27 25 24 22 20 20 21 19 17 16 16 16 15 14 13 13 13 12 12 12 12 11 11 10 10 9 8 8 8 8 8 7 7 6 6 6 6 6 6 6 7 7 7 7 7 6 7 7 7 7 7 7 7 7 7 7 7
3 2 1 3 1 1 1 3 4 4 5 6 6 7 6 7 7 6 7 3 1 3 4 5 4 2 3 2 3 4 3 9 7 8 22 30 34 35 32 30 29 28 25 23 22 22 22 20 18 17 17 16 15 15 14 14 13 13 13 12 12 11 11 10 10 9 8 8 8 8 8 7 7 7 7 8 8 8 8 8 9 9 9 9 9 9 9 9 8 8 8 8 9 9 9 9 9
3 3 1 1 2 1 4 3 4 4 6 6 7 9 5 7 7 5 6 4 3 4 4 3 2 2 3 4 4 3 4 9 10 17 26 31 34 34 33 31 29 29 27 25 24 24 24 22 20 18 18 17 17 16 16 15 14 13 13 12 12 11 11 10 10 10 9 9 9 9 9 9 9 9 9 10 10 10 10 10 10 10 10 10 10 10 10 10 10 9 9 9 10 10 10 10 9
2 3 2 2 2 1 4 4 5 5 6 5 6 8 5 8 6 3 3 3 3 3 2 2 1 4 3 2 3 2 6 12 17 24 28 32 33 33 33 30 28 28 27 25 25 26 24 23 22 20 19 19 18 17 16 15 14 13 12 12 12 11 11 11 11 11 11 11 11 11 10 11 10 11 10 10 11 11 11 11 11 11 11 11 11 11 10 10 10 10 10 10 10 10 10 10 10
2 3 4 3 2 3 4 3 6 7 7 5 5 5 4 8 5 4 5 4 3 3 4 5 4 5 3 4 3 2 8 18 21 26 30 33 33 32 31 29 28 27 25 24 25 26 24 24 23 21 21 20 19 17 16 15 14 14 13 13 13 12 12 12 12 12 13 12 12 12 12 11 11 11 11 10 10 10 10 10 11 10 11 11 11 11 11 11 11 11 10 10 9 9 9 9 9
2 1 5 1 3 3 3 3 5 5 7 4 5 3 5 7 5 7 7 3 4 5 6 8 4 4 4 3 2 2 8 21 23 26 31 33 32 31 30 28 27 26 25 24 24 25 25 25 23 23 22 21 19 17 17 16 15 15 14 13 13 13 13 13 13 13 13 13 13 13 12 12 11 11 10 10 10 10 10 10 10 10 10 10 10 11 11 11 11 11 10 10 10 9 9 9 9
2 2 5 1 1 1 3 3 4 3 5 6 4 2 4 4 5 6 7 4 7 7 5 7 6 3 3 2 2 3 10 22 25 28 32 31 30 29 29 29 27 26 25 25 25 25 26 25 25 24 23 21 19 18 17 16 15 15 14 14 14 14 15 15 15 15 14 14 14 13 13 13 12 11 11 10 10 10 9 9 9 9 9 9 9 10 10 10 10 10 10 10 10 10 9 9 9
2 1 4 1 2 2 3 4 4 3 4 5 3 1 2 3 2 4 6 6 8 5 1 3 5 2 3 5 5 6 15 27 27 30 31 28 27 27 28 28 27 27 26 26 26 26 27 26 25 25 23 22 20 19 18 16 16 15 15 15 15 16 16 16 16 16 15 15 14 14 13 13 13 12 12 11 11 10 10 10 9 9 9 9 9 8 8 8 9 9 9 9 9 9 9 9 9
2 3 4 1 2 2 3 4 2 1 5 5 3 1 1 6 0 2 5 4 3 2 2 4 5 2 4 8 5 6 19 31 29 30 29 25 25 25 26 27 27 27 26 26 27 28 28 27 26 25 24 22 21 20 18 17 17 16 16 16 17 17 17 17 17 16 16 15 15 15 14 13 13 12 12 12 11 11 10 10 10 10 9 9 9 9 9 9 9 9 9 10 10 10 10 10 10
3 4 2 2 2 2 4 4 2 2 5 6 5 1 4 7 3 1 2 2 1 2 2 5 3 2 2 4 5 5 25 33 31 30 27 24 24 24 25 26 27 27 28 28 28 29 29 29 28 27 25 24 22 20 19 18 18 18 18 18 19 19 18 18 17 17 16 16 16 16 16 15 15 14 13 13 12 12 11 11 11 11 10 10 10 10 10 10 10 10 10 10 11 11 11 11 11
3 3 2 3 3 4 5 6 5 3 4 5 4 4 7 5 4 1 1 1 2 3 3 4 2 3 2 1 3 16 31 33 32 31 27 25 23 23 25 27 30 30 31 30 30 30 31 31 30 29 27 26 24 22 21 20 20 20 20 20 20 20 20 20 19 19 18 18 17 17 17 16 16 15 14 14 13 13 12 12 12 11 11 11 11 11 10 10 10 11 11 11 11 11 11 11 11
2 3 2 4 6 5 5 5 4 2 4 5 5 4 6 6 4 1 2 5 3 4 6 3 5 4 3 4 13 24 31 33 32 32 28 27 27 26 26 27 30 31 33 35 34 33 33 34 32 31 29 27 26 24 22 22 22 22 22 22 22 22 21 21 21 21 21 20 19 19 18 17 16 15 15 15 14 14 13 13 12 12 11 11 10 10 10 10 10 10 11 11 11 11 12 12 12
2 3 2 7 7 6 6 6 6 5 4 4 6 2 4 6 3 2 4 6 5 7 8 4 8 10 4 4 12 22 27 28 30 29 28 28 29 29 28 29 32 35 39 39 38 36 35 35 35 33 31 29 28 26 25 24 24 24 24 24 24 24 23 23 23 22 22 21 21 20 19 19 17 16 16 15 14 13 13 13 12 12 11 10 9 9 10 10 9 9 10 10 10 11 11 11 11
2 4 5 7 4 4 8 7 7 7 4 3 4 1 3 6 3 3 4 4 8 9 9 9 12 13 9 7 10 18 21 23 25 26 26 27 28 29 30 34 37 38 38 36 36 38 37 36 36 35 33 31 30 29 28 27 27 26 26 26 25 25 25 24 24 23 23 23 23 21 20 20 18 17 16 15 14 13 13 12 11 11 10 10 9 8 9 9 8 9 9 9 10 11 11 11 11
1 5 8 7 3 4 9 6 6 5 2 3 4 4 6 3 2 5 7 7 11 7 8 12 13 11 11 12 13 15 16 18 21 24 25 27 29 30 31 33 33 31 32 35 39 41 40 38 37 36 35 34 32 31 30 29 29 29 29 28 28 27 26 26 25 24 24 24 23 21 20 20 18 17 16 15 14 13 12 11 10 10 8 8 8 7 8 8 8 8 8 9 10 11 11 11 11
3 6 5 7 6 7 9 5 4 3 2 6 5 4 2 2 5 6 9 15 15 6 7 11 13 12 14 15 14 14 14 16 20 26 29 30 31 33 35 34 34 34 35 39 41 41 41 40 38 37 36 36 34 32 31 31 31 31 30 30 29 29 28 28 27 26 25 24 22 21 20 19 18 17 16 15 14 13 11 10 9 8 7 6 6 6 6 7 7 7 7 8 8 9 10 10 10
5 6 4 6 8 9 10 7 6 4 6 8 3 3 3 6 8 3 8 19 16 8 6 8 9 9 13 13 14 16 17 18 24 32 35 36 39 41 40 38 37 36 35 37 39 40 42 42 41 39 38 38 36 35 34 33 32 32 32 31 31 30 30 29 27 26 25 23 22 21 19 18 18 17 16 15 14 12 10 9 8 7 6 5 5 5 5 6 6 6 6 7 7 8 9 9 9
6 7 5 5 5 8 9 7 8 7 7 5 2 6 8 9 5 6 18 22 11 8 8 8 5 6 11 13 16 16 16 19 24 29 33 35 38 37 35 34 33 32 35 38 38 40 43 43 43 42 41 40 38 37 36 35 34 34 34 33 32 31 31 29 28 27 26 24 24 22 20 19 18 17 16 15 14 12 10 9 8 6 5 4 4 4 5 5 6 6 6 7 7 8 8 8 9
6 7 5 5 7 8 7 7 9 7 5 3 3 12 11 7 2 9 24 20 9 9 10 10 7 7 10 12 14 16 16 18 21 26 31 33 30 29 32 33 32 36 39 38 39 42 43 43 44 45 44 42 40 39 37 36 36 36 35 34 33 32 31 30 29 28 27 26 24 23 21 19 18 18 17 16 14 12 11 9 7 6 4 4 4 3 5 5 6 6 7 7 7 8 8 8 9
4 4 5 7 9 9 5 7 10 5 5 6 7 15 12 3 1 10 20 8 2 8 8 9 8 9 11 10 12 14 15 19 25 26 25 24 25 29 33 33 36 39 38 37 41 43 42 44 46 46 45 43 42 40 39 38 38 38 37 35 34 33 32 30 30 29 27 26 24 23 22 20 19 18 17 16 14 12 11 9 7 6 4 3 3 3 4 5 6 6 7 7 7 7 8 8 9
2 2 7 10 7 10 9 9 9 3 4 7 9 12 11 1 3 14 21 5 5 4 7 7 8 10 11 11 11 10 12 21 26 22 19 23 29 34 34 37 41 40 38 41 43 41 41 44 46 46 45 44 43 42 41 40 40 39 38 36 35 34 33 32 31 29 28 27 25 24 22 21 20 18 17 16 14 13 11 10 8 6 4 3 2 2 3 4 5 6 6 7 7 7 7 8 9
2 1 6 12 7 11 15 9 7 4 3 5 8 5 9 5 10 20 22 9 1 4 8 9 9 10 9 10 10 9 12 18 18 20 26 32 36 37 39 43 44 41 42 43 40 39 42 45 46 46 45 45 45 44 42 42 41 40 39 38 36 35 34 33 32 30 29 28 26 25 23 22 21 20 18 17 15 14 12 11 9 7 5 4 3 2 2 3 4 5 5 6 7 7 7 8 9
4 2 1 9 7 10 13 2 2 4 4 6 8 3 9 10 16 20 16 9 5 8 11 11 9 9 9 9 8 10 12 12 15 24 33 36 37 38 41 43 42 42 41 37 37 41 43 44 45 45 45 46 46 44 44 43 43 42 40 38 37 36 35 34 33 31 30 29 27 26 25 23 22 21 19 18 17 15 13 12 10 8 6 5 3 1 1 2 3 4 5 5 6 7 8 10 11
3 2 1 3 3 9 9 3 4 3 4 7 8 3 10 13 17 16 10 7 6 8 14 12 10 9 8 8 8 10 11 13 21 30 34 36 37 37 39 40 39 40 38 37 41 44 43 43 44 45 46 47 46 45 45 45 44 43 42 40 38 37 36 35 34 32 31 30 29 27 26 24 23 22 20 19 18 16 15 13 11 9 7 6 4 2 1 1 2 3 4 5 6 7 8 11 12
1 2 4 2 4 8 12 4 7 7 5 4 7 4 9 15 17 14 7 5 7 9 13 13 11 9 8 9 9 11 11 13 21 28 32 35 36 36 38 39 38 39 41 42 43 42 42 43 44 45 46 47 46 46 46 45 44 43 42 41 39 38 37 36 35 33 33 32 30 29 27 26 24 23 21 20 19 17 16 14 13 11 9 7 5 3 2 1 1 3 4 4 6 7 9 11 12
2 3 6 5 5 4 9 9 6 10 4 2 7 6 7 11 13 12 6 5 8 9 12 13 12 11 10 9 9 10 10 10 14 21 31 35 35 37 38 40 40 42 44 44 43 41 43 44 44 45 46 48 47 46 45 44 44 43 42 41 40 39 38 37 36 34 34 33 32 30 28 27 26 24 23 22 20 19 18 16 14 12 11 8 7 5 4 2 1 2 3 4 5 7 9 11 13
4 2 5 6 7 4 4 9 6 6 6 6 9 9 11 15 12 10 7 5 7 7 11 12 11 11 10 10 9 9 10 11 11 17 30 34 35 38 39 41 42 42 43 43 43 44 45 45 46 46 46 46 46 45 44 43 43 41 41 40 40 39 39 38 36 35 35 34 33 32 30 28 27 26 25 23 22 20 19 17 16 14 12 10 9 7 5 4 2 1 2 3 4 6 8 11 14
6 5 5 4 6 6 6 10 5 2 5 7 8 10 15 19 16 13 12 9 6 9 11 10 10 11 11 10 9 9 10 12 14 21 29 29 32 36 38 39 40 40 41 42 43 44 43 44 45 45 44 45 44 44 43 42 40 39 39 39 39 39 39 38 37 37 36 35 34 33 31 30 29 28 26 25 23 22 20 19 17 15 13 12 10 8 7 5 3 2 2 2 3 5 7 10 13
10 9 6 6 7 6 9 13 8 3 6 8 9 13 15 17 18 16 16 14 12 13 11 9 10 12 12 11 9 10 12 13 17 25 25 22 27 33 36 37 38 39 40 41 41 42 42 42 43 43 44 44 43 41 41 40 38 38 38 38 39 40 40 39 38 38 37 36 35 33 33 32 30 29 28 26 25 24 22 21 18 16 15 13 11 10 8 6 5 4 2 1 2 3 5 8 11
8 7 6 8 9 9 11 15 10 4 5 9 12 17 17 17 19 18 15 13 14 15 13 12 13 13 13 13 13 14 14 15 18 22 20 19 25 30 34 35 34 35 36 38 40 42 43 44 44 44 44 44 44 44 43 42 41 40 39 41 42 42 42 40 39 39 38 37 36 35 35 34 32 30 29 28 26 25 23 21 20 18 16 14 12 10 9 8 6 5 4 2 2 2 4 7 9
8 7 8 9 8 12 14 13 12 4 5 9 11 16 19 17 18 17 12 12 15 17 15 16 17 15 13 13 17 17 15 14 15 17 15 18 23 27 31 32 33 35 36 39 42 44 45 45 46 46 45 46 47 47 47 46 46 45 44 44 43 42 42 42 42 42 40 39 37 36 36 35 33 31 30 29 27 26 25 23 21 20 18 16 14 12 11 9 8 7 5 3 2 2 4 5 9
8 6 7 9 7 11 12 10 13 5 4 8 11 14 16 14 16 17 14 14 16 17 16 18 18 14 13 14 16 17 16 15 16 16 13 14 20 23 26 29 34 38 39 41 43 43 44 45 46 45 45 47 48 48 48 47 47 45 42 41 40 39 40 42 41 41 40 39 38 37 36 36 34 33 31 30 29 27 26 25 23 20 19 18 16 15 13 11 10 8 6 5 3 1 3 3 6
7 7 6 8 8 9 8 6 8 4 3 7 9 12 12 11 13 14 16 18 16 15 16 17 16 14 16 17 15 15 17 17 17 18 14 10 14 19 24 28 33 35 35 37 39 40 42 44 45 44 45 47 47 48 47 46 43 40 37 35 36 36 35 37 37 37 39 39 38 37 37 36 35 34 33 31 30 29 27 25 23 22 20 19 17 15 14 13 11 9 8 6 4 2 3 2 2
9 9 8 11 12 12 11 6 6 6 5 5 7 12 11 10 14 14 14 16 15 14 15 16 16 16 16 16 16 16 18 19 17 18 15 8 10 16 23 27 30 32 33 37 40 42 43 44 44 44 45 46 47 47 45 42 39 37 33 29 29 30 29 31 33 35 38 39 40 40 39 38 37 35 34 33 32 30 28 26 24 23 22 20 18 16 14 13 11 10 9 7 5 3 3 3 2
9 8 13 18 16 13 13 10 8 7 6 4 2 9 9 8 13 14 11 10 12 11 13 16 17 17 15 15 17 18 18 18 16 17 15 9 9 13 19 24 27 30 35 39 41 43 42 43 44 44 45 46 46 46 44 42 40 39 37 33 31 31 29 33 39 40 41 42 42 41 40 38 38 37 36 34 33 31 29 28 26 24 23 21 20 17 15 14 13 11 10 8 7 5 4 4 3
9 6 13 17 13 10 12 10 5 3 6 4 2 2 9 6 7 10 10 9 12 10 11 15 15 15 14 14 16 16 17 15 13 15 14 10 9 10 15 22 28 32 35 36 37 39 40 41 43 44 45 45 44 44 44 43 42 42 43 41 39 38 36 38 42 40 41 42 41 40 40 39 38 37 37 35 34 32 31 29 27 26 24 22 20 18 17 16 14 12 11 10 8 7 6 4 4
8 4 8 11 9 9 8 6 5 4 4 4 2 4 8 14 7 10 12 10 10 11 13 14 14 15 15 14 15 16 16 13 10 11 13 11 10 11 15 23 30 33 32 32 34 38 39 39 42 44 43 43 43 44 45 45 45 45 45 43 40 41 41 39 38 37 39 40 40 40 41 40 39 39 38 36 35 33 32 30 28 27 25 23 21 20 18 16 15 14 13 11 10 9 7 5 4
7 3 6 6 6 5 4 4 5 2 4 4 4 5 3 15 8 8 10 9 9 12 16 17 16 15 14 14 16 17 15 12 9 10 12 10 10 13 18 24 29 30 30 33 36 37 38 39 41 42 41 42 42 44 46 47 47 46 45 43 41 41 40 36 35 36 37 38 40 40 40 41 41 40 39 37 36 34 33 31 29 28 26 24 23 21 19 17 17 16 15 13 12 10 8 6 5
4 6 5 4 3 3 5 2 1 2 5 6 6 6 3 14 9 5 4 5 9 12 14 16 15 13 12 13 16 16 13 10 9 10 10 9 10 15 20 21 25 28 30 33 34 34 36 37 39 41 41 41 42 45 47 48 47 46 45 45 43 40 37 33 32 34 35 37 39 40 41 42 42 42 40 38 37 35 33 32 31 29 28 25 24 22 20 20 19 17 15 14 13 11 9 7 6
3 6 5 6 5 5 4 1 4 2 8 6 10 12 7 9 6 5 4 5 8 9 9 11 11 11 12 13 13 13 13 11 8 8 8 7 9 13 18 19 21 25 27 29 31 34 36 38 39 41 42 42 43 45 47 48 48 47 47 47 45 41 38 35 34 34 37 38 40 41 41 42 42 43 42 40 38 36 35 33 32 30 28 26 25 23 22 21 20 18 17 16 14 12 10 8 8
4 4 4 3 4 4 4 4 4 1 9 6 12 13 11 10 6 2 5 6 5 7 8 10 12 12 13 12 11 12 14 11 6 6 6 5 6 10 13 15 18 22 24 28 32 34 36 39 40 41 42 43 45 46 48 49 49 49 48 47 47 44 40 39 39 38 39 40 41 40 40 40 41 41 42 42 41 39 37 35 33 31 30 28 27 25 24 22 20 19 18 17 16 13 11 10 10
4 4 4 1 4 3 3 4 1 4 8 5 8 8 8 12 7 3 9 10 7 9 10 11 12 12 12 12 12 11 12 9 5 6 6 6 7 9 10 12 17 21 26 30 32 34 36 38 40 41 43 45 44 45 48 48 49 51 50 48 47 44 42 42 42 41 41 41 41 40 40 41 41 42 43 44 44 42 40 38 36 35 33 31 29 27 24 23 22 21 20 18 17 14 12 11 10
6 5 6 5 3 2 3 4 3 5 7 4 4 6 5 8 4 8 15 15 12 10 10 12 12 11 12 12 11 10 11 9 5 6 6 7 8 9 10 12 17 21 26 29 31 34 34 35 38 41 41 42 43 45 46 48 50 52 51 49 46 43 43 44 43 42 42 42 42 42 44 44 44 46 48 48 47 45 43 41 39 37 35 32 30 28 25 24 23 22 21 19 17 14 12 11 10
7 5 5 6 5 4 4 5 6 7 5 4 1 5 4 5 3 9 12 10 8 7 10 11 11 11 10 10 9 9 12 8 4 6 7 9 10 9 9 13 18 22 25 28 30 33 33 35 38 40 40 43 46 46 47 49 52 51 48 47 45 44 45 44 44 43 42 42 43 43 44 45 46 47 47 47 47 46 44 42 40 38 36 33 31 29 27 25 24 23 21 19 17 14 13 11 11
4 4 4 4 5 6 4 7 6 2 3 4 3 5 6 4 6 8 8 8 8 8 8 7 9 11 9 10 11 11 13 8 4 6 8 9 9 8 9 13 17 20 23 27 30 33 36 37 39 41 42 44 46 47 47 50 49 46 45 46 46 45 44 43 43 43 43 43 43 43 44 45 45 45 44 45 45 46 46 44 42 40 37 35 32 30 28 27 26 24 22 20 18 15 13 12 12
2 4 4 3 3 6 5 7 2 1 4 6 3 6 7 6 9 9 8 11 11 9 7 6 9 12 12 12 12 12 12 8 5 7 8 8 8 7 9 14 18 21 25 30 34 38 41 40 39 40 40 39 42 46 48 48 45 43 44 46 46 45 46 46 46 45 43 41 41 43 43 43 44 44 43 44 45 45 45 45 43 41 38 36 33 31 30 28 26 24 23 21 18 15 13 13 13
6 4 6 2 2 2 3 2 2 2 8 7 5 11 10 6 9 5 1 4 8 8 9 10 12 13 12 12 12 12 12 8 5 7 7 7 8 8 10 15 20 25 29 33 37 39 39 39 39 39 38 39 44 47 47 45 44 44 45 46 47 48 49 48 46 43 41 40 40 42 42 42 44 44 43 44 44 44 45 45 44 42 39 37 34 33 31 29 27 25 23 20 17 15 15 15 14
4 3 3 3 1 3 3 3 3 6 9 7 10 16 11 8 10 6 4 7 10 11 10 10 11 11 9 11 13 13 11 8 6 7 7 7 8 8 10 16 21 25 28 30 31 31 32 35 38 38 40 41 41 39 40 42 43 44 45 47 49 49 48 48 45 42 40 41 42 43 42 43 43 43 43 44 44 44 45 45 44 42 40 37 35 34 32 30 27 25 23 21 18 17 17 16 15
2 1 1 1 2 4 3 3 3 5 9 8 11 14 10 9 7 6 8 10 10 11 8 7 10 11 10 11 11 11 9 8 7 6 7 8 8 8 11 16 20 23 25 24 25 29 33 35 35 35 38 38 36 37 39 41 44 45 45 45 46 48 48 47 45 42 41 43 44 43 43 43 43 43 44 44 45 45 45 45 44 43 40 39 37 35 33 31 29 27 25 22 20 20 19 17 16
2 2 3 3 2 2 1 2 2 4 8 8 9 10 10 8 3 6 9 8 9 9 6 6 8 8 9 9 9 9 7 7 8 8 9 8 8 9 12 15 17 19 21 22 25 29 31 31 33 36 37 36 38 40 41 43 45 46 46 45 46 47 46 45 43 43 43 43 43 43 43 43 43 44 45 45 45 45 45 45 45 43 42 40 39 37 35 33 30 28 26 24 22 20 19 18 17
6 6 7 7 7 4 4 6 5 4 6 7 9 9 10 8 2 3 6 4 5 6 4 6 7 7 8 8 9 10 8 8 9 8 9 8 7 7 7 10 13 15 18 21 25 26 27 31 36 38 37 38 40 42 44 47 47 47 47 47 45 42 41 41 42 42 43 44 44 44 44 43 43 44 45 46 46 45 45 45 45 44 43 42 40 39 37 34 32 29 27 25 23 21 20 19 18
Wind_Direction
211 151 132 69 1 29 35 66 71 318 79 277 269 200 261 229 195 173 203 240 199 265 251 311 66 84 94 136 161 166 152 164 169 144 213 197 143 160 172 172 170 170 170 172 173 173 169 161 159 158 156 156 162 157 147 147 148 151 143 146 144 142 150 143 138 136 137 131 129 126 116 112 108 107 113 144 150 143 155 149 153 133 101 93 92 104 107 93 81 64 31 58 63 65 58 58 86
266 125 73 290 9 46 240 77 93 326 39 315 278 179 253 280 198 193 199 209 210 204 195 111 77 60 65 88 118 129 148 227 169 147 212 151 145 167 175 179 176 172 173 172 174 174 170 167 162 158 159 160 166 160 152 150 149 154 147 142 138 140 146 142 143 144 145 136 130 124 116 111 106 106 109 150 185 181 181 170 168 142 106 95 81 92 164 211 118 51 337 340 25 40 42 11 18
182 130 52 74 31 44 61 47 90 50 51 280 274 240 258 270 224 219 213 219 218 160 121 152 91 67 78 58 98 131 202 276 150 134 125 161 166 173 174 181 178 176 176 171 174 175 171 169 168 164 161 160 157 152 157 153 149 165 162 149 138 136 139 135 136 139 139 132 129 128 125 122 120 127 142 175 189 190 187 176 168 149 123 95 78 75 345 335 360 5 345 354 16 24 22 10 3
113 101 23 55 56 25 64 49 155 128 175 237 266 269 255 219 222 231 234 234 227 152 134 167 100 118 112 142 193 101 218 257 190 163 153 187 185 170 170 177 178 180 177 173 173 175 171 167 169 167 161 157 152 150 157 151 151 168 163 150 139 140 142 132 129 130 134 144 152 157 155 155 154 163 174 177 173 176 179 174 165 153 138 109 86 67 35 35 35 20 13 6 10 12 10 13 9
79 30 358 45 87 40 98 87 127 131 208 198 222 266 248 222 211 214 239 255 244 212 189 150 130 237 109 183 178 142 207 233 200 181 177 191 181 165 168 175 178 181 179 177 177 179 174 168 169 167 163 158 157 157 158 156 161 165 150 140 137 140 138 132 136 140 149 160 160 161 160 161 162 164 164 159 157 153 152 155 148 143 136 118 97 81 72 66 58 42 30 19 17 19 22 23 23
43 61 4 40 98 133 115 217 197 211 225 177 206 262 255 227 201 192 217 275 275 240 190 164 159 166 268 251 186 207 193 128 169 193 202 182 171 165 169 175 177 180 181 181 184 184 176 171 171 167 164 162 162 163 163 165 165 163 152 148 148 146 144 146 152 156 159 158 153 152 151 154 155 156 154 148 141 133 132 132 131 131 128 123 107 93 82 73 66 56 44 37 34 30 31 30 29
30 42 6 53 43 40 117 213 215 237 238 182 197 250 256 229 192 172 177 213 295 305 219 209 152 118 212 243 184 217 206 186 160 206 207 173 166 167 172 176 176 179 183 184 187 184 178 173 170 165 164 164 163 163 162 162 162 162 162 161 161 160 160 161 161 161 161 157 154 151 150 150 150 150 147 140 133 127 123 119 120 121 120 120 111 99 85 75 68 61 55 50 47 44 43 38 34
37 43 21 93 51 9 115 240 237 219 243 218 214 239 242 208 178 169 184 186 183 240 207 230 180 117 239 164 180 237 208 199 198 227 186 167 167 169 176 180 177 180 184 187 187 186 181 173 168 166 165 165 164 162 162 163 165 166 168 169 169 170 170 169 169 168 167 164 162 159 157 153 150 147 141 135 131 125 118 113 110 109 109 108 103 98 89 81 75 69 65 59 57 56 54 50 46
36 40 39 97 142 324 325 282 265 235 249 252 247 249 237 183 175 173 180 222 243 191 208 213 189 175 222 170 237 272 237 213 216 190 173 169 171 172 179 183 182 182 185 189 189 189 182 172 169 168 168 170 168 168 170 171 174 174 175 176 176 176 176 177 177 176 174 170 167 165 161 155 150 143 138 133 129 125 120 115 110 107 105 103 100 96 90 85 78 73 69 64 62 59 59 57 55
31 31 107 97 115 298 304 277 258 259 249 252 259 250 222 165 176 191 174 221 218 166 223 217 172 196 173 177 234 281 223 209 184 170 172 172 172 176 182 186 188 186 186 189 190 188 182 175 173 173 174 174 175 177 179 179 179 179 180 180 180 180 179 180 178 176 172 167 162 156 150 146 142 136 133 130 127 124 119 115 111 107 102 99 96 92 87 82 77 74 70 66 63 61 59 56 56
29 349 95 90 72 235 260 257 262 265 269 295 290 254 204 158 158 203 188 222 212 156 199 164 211 198 154 221 246 278 185 183 177 171 172 173 174 179 183 186 191 192 190 188 189 187 184 181 180 180 180 180 182 183 182 182 182 182 183 182 182 181 179 178 174 171 165 159 153 147 143 140 137 134 131 127 125 121 117 112 108 104 100 96 93 91 88 85 81 78 74 71 70 66 61 56 56
80 328 63 106 172 211 217 234 268 274 294 306 281 260 167 147 144 202 203 207 198 176 211 189 194 164 144 274 268 317 176 178 181 175 173 174 176 180 185 187 190 195 192 187 188 188 187 185 184 185 185 186 185 185 185 183 185 185 185 183 181 180 176 174 169 164 159 153 150 145 144 142 139 136 132 130 126 122 119 114 112 108 105 101 98 97 93 92 89 86 82 79 78 75 69 63 61
122 150 84 143 194 190 214 226 271 295 308 270 242 259 136 146 191 209 188 189 171 166 234 209 164 143 180 269 273 310 194 185 180 175 174 175 178 181 187 188 190 195 194 192 190 189 190 187 187 189 188 188 187 186 187 186 188 187 185 184 181 178 173 169 165 160 156 152 150 148 147 146 143 141 138 136 132 129 126 123 120 115 112 109 106 103 99 98 95 93 89 86 85 81 77 73 69
147 151 115 214 243 181 219 245 278 282 284 259 253 264 149 171 212 189 152 185 208 184 233 200 143 144 205 287 282 266 207 190 178 174 174 174 180 184 188 190 192 196 198 199 196 194 192 190 191 192 190 189 190 189 189 190 189 188 187 184 180 176 171 168 164 161 158 155 153 151 150 149 148 146 145 143 141 138 135 133 129 124 122 118 114 109 105 103 100 96 91 88 84 81 78 75 72
169 126 102 143 306 313 226 226 243 205 254 256 261 263 199 258 160 147 170 194 235 214 157 170 154 180 196 181 228 248 199 185 175 173 173 176 181 185 189 191 195 198 201 203 201 199 196 195 195 194 192 191 194 193 192 192 190 190 188 185 181 175 172 169 166 164 162 159 157 155 154 152 152 151 150 149 147 145 143 141 137 134 130 126 123 118 114 109 104 99 92 88 82 78 73 69 67
132 102 77 354 260 281 227 215 213 188 254 243 267 12 200 281 181 155 218 177 256 249 131 190 194 199 174 176 240 250 182 175 172 173 173 177 181 184 189 192 197 201 203 205 204 202 200 200 199 197 195 195 198 196 194 193 191 191 187 185 182 177 175 172 170 168 165 163 161 159 159 157 155 155 154 153 151 148 146 144 139 136 133 127 123 116 112 105 99 94 88 84 78 75 69 64 62
64 86 87 294 223 222 215 210 214 206 262 266 295 293 182 281 296 193 259 119 218 252 214 224 214 79 174 220 284 180 164 167 169 170 171 174 177 180 186 191 196 201 205 208 207 204 203 203 202 200 198 198 200 199 197 195 193 190 187 186 183 181 178 176 174 171 169 166 165 164 162 161 158 156 155 154 151 147 144 141 135 130 126 119 114 108 104 97 93 88 83 79 74 72 68 64 60
65 101 163 241 205 211 197 197 207 177 269 266 267 229 186 252 279 254 331 322 279 260 268 264 281 34 33 304 147 150 157 163 167 168 170 172 175 179 186 191 194 201 204 207 209 207 206 205 204 203 202 201 201 202 200 197 195 192 189 187 185 184 182 180 178 175 173 170 168 167 165 161 157 155 153 151 147 144 140 134 128 125 119 113 111 107 103 97 92 86 81 78 74 71 67 64 60
131 135 178 233 206 218 204 205 229 200 263 258 263 246 188 224 239 102 249 264 273 244 265 277 264 281 34 89 136 149 156 162 169 172 174 176 181 185 189 193 196 201 204 207 209 208 208 207 206 205 204 202 202 203 201 199 197 194 191 189 188 187 185 184 181 178 176 172 171 169 164 159 155 154 151 149 145 140 135 130 126 125 119 114 110 105 100 95 88 84 80 76 74 71 66 63 60
184 149 217 244 216 237 250 240 248 236 239 251 273 255 187 236 224 135 224 260 260 224 237 217 238 243 195 135 147 154 159 166 174 177 182 186 190 192 192 194 198 203 206 208 208 207 207 207 207 207 206 205 203 202 201 200 198 195 193 191 191 189 187 185 183 181 177 174 173 170 162 156 156 155 151 147 143 137 133 130 127 124 119 112 105 99 94 88 83 78 76 75 71 68 65 62 59
185 163 211 240 204 247 259 246 246 237 218 211 246 300 269 254 195 191 193 263 268 231 224 209 222 229 186 169 172 166 168 173 181 185 189 193 197 199 200 200 202 206 207 207 207 207 206 207 207 207 207 206 204 203 202 200 198 195 194 193 192 190 188 186 185 182 179 177 175 169 160 156 157 154 149 145 141 138 134 133 127 121 116 107 98 91 86 81 76 71 68 67 64 62 61 58 56
175 215 223 239 204 252 262 252 243 225 216 250 260 281 271 253 186 217 189 229 256 222 213 214 220 220 180 177 180 174 178 181 187 193 196 198 201 204 207 208 207 208 208 208 208 208 207 206 207 206 206 206 206 205 204 202 199 197 195 194 193 190 188 187 185 183 182 180 174 168 161 159 159 154 150 147 144 144 140 135 128 120 113 101 91 81 76 73 67 65 62 59 60 59 58 55 50
228 253 239 246 225 242 267 269 256 230 258 266 261 263 268 324 277 235 199 229 245 218 191 204 220 216 180 170 171 177 188 190 194 198 199 201 203 206 207 208 208 208 208 210 209 208 208 207 207 207 206 206 206 206 205 203 201 199 197 195 194 191 189 189 186 184 184 180 173 170 166 162 160 156 155 152 150 150 146 138 130 123 115 99 85 71 64 64 60 60 59 59 62 60 59 55 49
220 258 259 255 232 233 257 269 279 277 249 248 263 305 270 258 274 300 240 242 243 242 217 203 220 202 165 161 174 187 192 194 201 203 203 203 205 208 208 208 209 209 209 210 209 207 208 207 207 208 207 207 206 204 204 203 201 200 198 197 196 192 190 191 187 184 184 180 176 173 170 166 164 162 161 159 157 155 151 142 134 128 118 98 82 69 56 55 53 54 52 53 55 54 56 53 48
214 243 257 266 249 243 260 272 276 273 253 243 274 276 251 236 269 315 268 262 252 233 234 222 198 152 160 176 187 192 197 201 207 208 208 211 211 212 212 211 210 210 212 212 209 208 209 208 207 208 209 209 207 205 203 202 201 199 199 198 196 194 193 192 188 186 184 182 179 176 175 173 171 169 167 165 163 161 157 147 139 135 121 98 82 67 54 51 46 44 44 43 42 43 46 44 41
217 228 258 274 277 275 280 280 269 267 255 194 230 267 260 241 277 284 267 268 258 216 223 223 188 171 186 191 193 195 202 206 210 211 213 216 216 216 216 214 211 213 215 213 210 210 209 207 207 209 209 209 208 206 204 202 202 200 200 200 197 196 196 193 190 188 186 185 183 179 179 179 177 175 173 171 168 168 162 154 149 144 129 105 85 61 54 45 41 40 38 39 37 34 32 32 30
214 226 270 263 275 284 264 263 269 277 265 203 217 266 274 267 188 267 269 273 179 203 225 228 203 213 211 200 204 201 205 211 211 210 213 216 215 218 218 214 214 216 216 213 214 212 209 207 208 209 209 209 208 207 205 203 203 201 201 201 200 199 197 194 193 191 189 189 187 183 182 182 182 181 179 176 174 175 170 164 161 157 148 123 93 60 52 38 36 34 31 33 30 27 23 19 17
236 263 303 281 294 297 263 258 267 266 271 213 192 260 284 320 177 247 262 267 104 199 242 243 220 230 225 212 214 205 213 218 212 208 209 212 213 216 216 214 215 216 215 216 215 212 209 209 209 209 209 209 208 208 206 204 204 203 203 203 202 202 199 196 195 194 193 192 191 187 185 185 186 186 184 183 181 181 180 175 172 170 165 145 115 72 52 38 33 25 25 24 19 20 12 8 8
282 11 319 292 329 307 274 265 251 196 233 188 145 273 284 234 223 241 254 261 307 275 264 254 238 239 234 224 220 213 222 220 210 210 215 216 216 215 216 218 216 213 216 217 215 211 211 210 209 209 208 208 209 209 207 206 205 204 205 205 204 203 201 199 197 196 196 194 193 191 190 189 189 190 187 186 186 187 187 183 182 181 175 164 145 100 59 45 32 22 23 18 13 9 356 356 360
296 21 309 291 337 301 274 253 212 199 207 165 130 271 270 246 244 246 256 265 273 277 269 258 247 245 240 232 227 226 226 216 210 217 220 220 219 218 219 222 217 215 216 214 213 213 213 211 209 208 207 209 209 209 208 207 206 205 206 206 205 205 203 203 200 198 199 197 196 195 193 192 192 192 191 190 190 192 192 188 187 186 184 176 164 141 93 46 20 17 16 11 5 358 351 350 348
299 307 251 288 301 274 280 96 128 227 224 163 142 227 258 262 262 255 254 246 228 250 265 263 253 246 244 240 232 236 231 216 220 223 224 223 222 220 222 223 219 216 214 212 215 215 212 210 208 208 207 209 209 209 209 208 207 206 206 207 206 206 205 206 204 201 201 200 199 197 195 195 194 194 195 195 195 197 197 194 191 190 190 185 180 177 161 4 356 1 1 3 358 352 350 347 343
345 254 269 280 208 264 296 293 174 214 253 150 153 220 255 261 266 265 253 213 202 228 255 264 263 256 247 245 236 240 242 228 228 231 230 227 224 222 222 223 219 216 214 214 215 212 210 210 208 207 207 208 208 209 209 208 208 207 207 208 207 207 206 208 207 204 203 202 202 200 198 197 197 198 197 199 200 201 201 198 194 194 193 191 190 192 203 261 322 339 342 349 350 349 346 342 339
325 208 245 257 226 257 305 296 216 202 214 172 203 225 257 260 260 267 268 213 201 224 253 259 264 264 252 248 240 239 247 243 238 236 235 229 225 223 221 222 221 218 216 214 213 210 208 209 208 207 207 207 207 207 207 207 207 207 207 208 208 208 208 209 209 207 205 204 204 203 202 199 199 200 200 201 203 203 203 200 197 196 195 195 193 197 207 216 256 309 329 340 345 350 343 337 336
277 217 232 250 240 228 274 292 277 186 178 212 229 228 245 256 256 265 271 216 184 212 249 256 258 262 257 254 248 244 244 245 244 239 236 229 223 223 221 222 222 219 217 213 212 211 209 207 207 207 207 207 205 205 205 206 207 207 207 208 209 209 210 211 211 210 208 206 205 205 205 203 201 202 203 203 203 204 203 202 200 196 195 195 193 198 201 207 228 259 309 331 341 348 341 336 337
231 217 229 251 243 232 246 268 272 161 207 221 232 239 244 257 263 266 267 252 232 234 243 254 260 261 260 258 254 249 244 244 245 243 240 230 221 221 221 221 220 217 215 213 212 210 208 206 205 205 205 204 203 203 204 204 205 205 206 207 209 210 210 211 212 212 211 209 207 206 207 206 204 203 204 205 204 204 203 202 201 197 196 195 193 196 198 206 215 224 270 313 332 346 342 338 339
222 226 236 249 249 243 244 255 250 205 252 238 233 248 248 256 261 259 262 262 260 257 253 255 258 260 261 258 255 250 247 246 246 246 245 233 221 220 219 218 217 216 213 211 209 207 205 203 201 202 203 201 199 199 200 200 200 202 204 204 207 209 210 210 212 213 213 213 211 209 210 209 207 205 205 206 206 205 205 203 201 197 197 195 196 198 196 203 208 219 239 260 306 343 343 340 344
239 252 261 254 255 262 253 262 266 196 230 243 231 249 254 254 259 255 256 261 261 260 259 256 251 252 255 256 256 252 246 247 252 255 249 233 225 220 218 216 212 211 210 207 205 204 203 201 199 200 200 198 196 196 197 197 197 198 200 203 206 207 208 209 211 213 214 215 214 212 212 211 210 207 206 207 206 206 205 203 201 199 198 197 197 197 196 200 204 216 225 229 282 341 350 349 353
251 251 264 263 252 263 259 264 275 217 202 252 240 253 258 251 258 259 252 252 257 256 254 255 253 249 251 252 254 254 251 253 259 263 248 227 223 217 213 210 205 205 205 205 204 203 202 200 200 199 197 196 197 197 197 198 200 200 200 203 205 205 206 208 210 213 214 216 215 214 213 212 211 209 208 208 207 206 205 204 203 202 199 196 196 196 196 201 204 212 217 218 250 358 10 7 360
243 242 258 265 254 271 270 255 267 243 182 257 253 255 259 251 254 259 255 247 249 252 249 253 254 251 251 247 249 253 255 259 258 260 250 223 217 213 207 205 204 206 205 204 204 201 199 199 199 198 195 196 198 198 199 200 202 202 203 204 204 204 207 210 211 213 214 216 216 215 214 213 212 211 209 209 209 208 207 207 205 202 201 200 200 199 197 201 206 211 214 214 212 87 55 35 7
225 227 246 261 251 264 268 246 268 262 198 262 268 264 264 257 258 256 254 252 251 254 252 254 256 250 249 247 248 252 252 255 254 256 254 223 209 208 204 204 205 205 204 202 200 198 197 198 198 196 195 196 198 199 200 200 200 200 203 205 205 205 208 210 211 214 215 215 215 215 215 213 212 211 210 210 210 209 208 208 206 204 204 204 204 203 202 203 206 209 211 214 211 165 118 109 23
225 213 225 249 247 243 252 273 313 299 264 276 283 284 273 236 243 250 248 251 253 253 251 256 257 249 250 253 252 250 249 251 251 255 254 221 202 207 205 206 203 201 202 201 199 198 197 198 197 195 195 196 198 199 198 197 196 195 197 199 200 203 207 206 208 212 212 213 215 214 214 213 212 212 211 210 210 209 209 208 208 207 206 205 206 206 205 203 203 206 209 213 217 202 163 149 158
250 214 217 237 247 250 259 284 321 310 285 296 291 292 285 205 216 239 243 245 248 248 245 249 253 251 250 253 253 250 249 250 249 255 255 226 203 208 206 205 201 201 205 204 201 199 198 197 195 195 195 196 198 198 196 195 194 193 192 190 191 195 200 204 207 209 208 210 213 213 213 213 213 213 212 211 210 209 209 208 208 208 208 207 207 205 202 201 202 204 205 208 215 215 196 169 173
272 226 214 233 245 253 258 270 295 269 263 292 94 271 286 264 213 222 231 237 243 248 246 246 249 251 247 245 250 251 251 249 244 249 251 230 205 199 203 204 201 204 207 204 201 199 198 196 194 195 195 196 196 196 195 194 194 194 196 196 197 197 200 207 210 210 209 209 211 212 212 213 214 214 213 211 210 209 208 208 208 208 210 209 207 204 202 202 202 202 205 208 213 214 209 194 185
266 224 195 214 227 237 232 231 240 238 277 296 140 142 278 283 250 194 206 218 235 248 249 249 246 244 245 246 249 250 251 248 237 243 247 231 209 200 204 205 205 207 205 200 198 197 196 195 194 195 195 196 196 195 195 196 196 197 199 201 203 204 207 210 210 210 211 210 210 211 212 213 215 216 216 213 210 209 208 208 208 208 210 208 207 206 204 202 199 200 204 205 210 213 214 216 201
251 161 157 177 193 210 166 176 225 284 337 290 199 137 259 279 262 171 194 208 222 239 239 244 244 241 243 247 250 250 251 247 228 234 242 227 211 208 207 206 207 206 201 198 198 196 195 194 194 195 196 196 196 196 197 199 200 200 201 202 205 209 211 212 211 209 210 209 209 210 211 212 214 215 216 216 212 210 209 209 209 209 209 208 207 206 202 202 201 203 205 205 209 210 212 224 222
228 116 104 79 83 76 94 127 129 41 306 259 196 157 217 279 276 145 164 207 219 232 233 240 245 246 248 248 254 258 260 254 228 228 235 222 215 213 206 204 205 202 200 198 196 192 192 193 193 194 196 197 197 198 199 200 202 202 203 205 207 209 209 210 210 208 208 207 207 208 209 210 212 212 214 215 215 213 210 209 209 210 209 208 208 205 202 203 203 204 206 205 208 208 210 221 226
133 100 60 34 23 28 57 45 69 36 281 238 184 181 186 272 286 133 166 225 219 222 229 247 254 257 257 252 257 263 263 256 229 223 232 219 211 205 200 200 199 197 196 194 191 190 191 192 193 195 197 198 199 200 201 202 203 204 206 207 209 209 207 205 206 205 205 205 205 206 207 208 210 211 212 213 214 214 211 210 210 210 209 209 209 207 206 206 204 203 204 204 206 207 210 215 223
111 102 73 31 332 8 28 352 56 201 265 221 185 185 184 234 263 159 241 268 244 216 219 237 243 247 254 255 257 258 259 255 224 218 224 199 185 188 193 196 190 188 188 189 190 190 191 193 194 195 198 199 200 201 202 203 204 206 209 210 211 210 207 206 206 206 205 204 205 205 204 206 207 209 210 211 212 213 212 210 209 209 209 209 209 208 207 207 205 203 204 205 206 206 209 215 222
109 109 114 101 300 341 354 313 108 218 257 227 181 177 206 242 252 246 267 276 250 218 216 227 233 240 248 254 253 252 263 264 223 208 206 192 191 187 190 192 183 184 187 189 190 190 192 195 195 196 199 200 201 202 203 204 206 208 210 211 212 211 210 210 210 210 209 207 206 204 203 204 204 206 208 210 211 211 211 210 208 208 208 208 208 208 207 205 204 205 205 206 208 207 210 219 225
160 154 153 169 216 245 257 264 260 257 266 258 172 167 239 279 268 221 237 248 240 218 215 225 226 233 239 247 252 257 272 270 215 195 200 205 209 195 191 192 186 189 191 189 190 191 193 195 197 200 202 201 202 204 205 206 209 211 211 212 212 211 211 213 213 213 212 210 208 206 206 206 205 207 208 210 212 211 210 210 209 209 208 208 208 206 205 206 206 207 208 209 210 209 213 222 228
187 159 144 178 190 179 202 231 251 267 283 296 203 172 227 288 267 217 223 250 261 228 224 230 230 237 245 261 271 269 272 266 185 188 213 214 211 200 194 194 192 192 190 190 192 193 194 198 201 202 203 202 203 205 206 208 211 212 212 212 213 213 213 215 216 216 214 212 210 209 209 209 209 210 210 211 211 210 210 210 209 209 208 207 207 205 205 206 206 207 209 210 210 210 215 223 229
222 124 121 215 204 175 214 249 238 236 307 285 228 212 240 253 255 244 240 269 272 243 243 252 251 253 256 265 265 258 262 256 186 203 227 223 216 205 197 195 194 192 190 192 194 194 197 201 203 205 206 205 204 205 208 211 213 212 212 213 214 214 215 215 217 217 216 215 213 211 211 212 212 212 211 211 211 210 210 209 209 209 209 207 206 205 206 206 206 207 207 209 209 211 217 224 228
177 130 180 223 156 157 221 270 280 93 266 264 217 236 274 301 279 255 225 239 250 256 270 261 249 251 248 251 253 254 260 259 223 220 226 221 213 211 209 199 192 191 192 196 198 199 201 203 204 207 209 208 207 208 210 212 212 212 213 214 214 214 215 216 217 217 216 215 213 213 213 213 212 213 212 211 211 210 210 209 209 208 208 207 205 205 206 206 206 207 209 211 211 212 218 223 227
133 173 210 165 72 145 177 245 328 284 255 266 257 257 270 286 282 293 105 253 269 270 255 238 239 243 242 250 254 256 264 276 269 249 243 229 210 206 213 206 198 197 198 201 203 203 204 205 205 207 209 211 212 211 211 212 211 213 214 214 215 216 216 217 218 217 216 214 213 213 213 213 213 212 212 212 211 210 209 209 209 208 206 206 205 204 205 205 205 207 210 213 212 213 218 221 224
132 195 206 115 169 225 162 175 217 237 245 260 266 268 269 245 255 286 295 277 277 268 254 243 249 251 250 256 257 256 263 275 272 254 251 248 229 216 211 207 203 203 206 207 206 206 207 209 209 209 211 214 216 215 214 214 213 214 215 216 216 216 217 217 217 216 215 213 214 213 212 213 213 212 211 211 211 210 209 208 208 207 205 204 204 204 204 203 204 207 209 210 210 212 217 220 222
24 344 331 38 197 192 180 182 172 221 240 250 262 269 271 250 241 242 241 244 252 258 259 246 243 244 244 247 254 261 265 268 265 253 250 250 246 239 225 216 209 205 209 211 208 208 210 212 211 212 215 216 217 219 218 216 216 216 217 217 218 217 217 217 215 214 213 214 215 213 212 213 212 211 211 211 211 211 209 208 206 205 204 203 203 203 203 203 204 207 210 209 209 211 215 219 220
196 220 237 253 234 180 250 244 166 223 241 244 253 257 264 265 223 205 233 238 237 241 248 252 249 253 260 265 277 282 280 270 261 254 251 242 237 241 234 229 222 211 208 209 211 213 213 213 212 214 217 216 217 220 219 219 218 217 217 218 218 218 217 216 214 213 213 214 214 213 213 212 211 211 211 210 210 210 209 207 205 204 204 203 203 203 203 203 204 207 208 208 208 210 214 217 217
188 200 214 215 218 219 256 250 220 216 239 245 249 250 261 266 218 199 236 244 259 250 241 274 282 274 274 279 279 277 278 273 270 271 269 256 247 251 246 241 235 224 216 209 210 214 214 215 216 215 217 217 218 219 220 220 219 217 217 217 218 218 216 215 214 213 213 214 213 213 212 211 210 211 210 209 209 209 208 207 205 204 204 204 204 203 202 203 204 205 205 206 207 209 213 215 215